TimeEDT,TemperatureF,Dew PointF,Humidity,Sea Level PressureIn,VisibilityMPH,Wind Direction,Wind SpeedMPH,Gust SpeedMPH,PrecipitationIn,Events,Conditions,WindDirDegrees,DateUTC
12:58 AM,68.0,59.0,73,30.11,10.0,East,8.1,-,N/A,,Clear,90,2013-03-11 04:58:00
1:58 AM,69.8,59.0,68,30.09,10.0,East,9.2,-,N/A,,Clear,100,2013-03-11 05:58:00
2:58 AM,68.0,59.0,73,30.07,10.0,ESE,6.9,-,N/A,,Clear,110,2013-03-11 06:58:00
3:58 AM,68.0,60.8,78,30.05,10.0,ESE,5.8,-,N/A,,Scattered Clouds,120,2013-03-11 07:58:00
4:58 AM,69.8,59.0,68,30.03,10.0,SE,8.1,-,N/A,,Scattered Clouds,130,2013-03-11 08:58:00
5:58 AM,69.8,59.0,68,30.03,10.0,SE,6.9,-,N/A,,Scattered Clouds,130,2013-03-11 09:58:00
6:58 AM,68.0,57.2,68,30.03,10.0,ESE,6.9,-,N/A,,Clear,120,2013-03-11 10:58:00
7:58 AM,68.0,59.0,73,30.04,10.0,East,5.8,-,N/A,,Clear,100,2013-03-11 11:58:00
8:58 AM,71.6,60.8,69,30.07,10.0,ESE,6.9,-,N/A,,Scattered Clouds,110,2013-03-11 12:58:00
9:58 AM,71.6,60.8,69,30.08,10.0,East,12.7,-,N/A,,Partly Cloudy,100,2013-03-11 13:58:00
10:47 AM,75.2,60.8,61,30.07,10.0,ESE,13.8,21.9,N/A,,Light Drizzle,110,2013-03-11 14:47:00
10:58 AM,73.4,60.8,65,30.08,10.0,ESE,10.4,-,0.00,,Light Drizzle,110,2013-03-11 14:58:00
10:59 AM,73.4,60.8,65,30.07,10.0,East,10.4,-,N/A,,Partly Cloudy,100,2013-03-11 14:59:00
11:09 AM,73.4,60.8,65,30.07,10.0,ESE,13.8,-,N/A,,Light Drizzle,110,2013-03-11 15:09:00
11:25 AM,75.2,60.8,61,30.07,10.0,ESE,13.8,19.6,N/A,,Partly Cloudy,110,2013-03-11 15:25:00
11:28 AM,75.2,60.8,61,30.06,10.0,ESE,15.0,19.6,N/A,,Light Drizzle,110,2013-03-11 15:28:00
11:38 AM,73.4,60.8,65,30.06,10.0,ESE,13.8,-,N/A,,Partly Cloudy,110,2013-03-11 15:38:00
11:58 AM,75.2,60.8,61,30.07,10.0,ESE,16.1,21.9,0.00,,Partly Cloudy,110,2013-03-11 15:58:00
12:58 PM,77.0,60.8,57,30.06,10.0,East,12.7,21.9,N/A,,Partly Cloudy,100,2013-03-11 16:58:00
1:58 PM,75.2,60.8,61,30.05,10.0,ESE,15.0,20.7,N/A,,Partly Cloudy,110,2013-03-11 17:58:00
2:58 PM,75.2,62.6,65,30.04,10.0,ESE,11.5,17.3,N/A,,Partly Cloudy,110,2013-03-11 18:58:00
3:58 PM,75.2,60.8,61,30.03,10.0,SE,11.5,-,N/A,,Partly Cloudy,130,2013-03-11 19:58:00
4:58 PM,75.2,62.6,65,30.02,10.0,SE,10.4,-,N/A,,Clear,130,2013-03-11 20:58:00
5:58 PM,75.2,62.6,65,29.99,10.0,SE,11.5,-,N/A,,Clear,130,2013-03-11 21:58:00
6:58 PM,73.4,62.6,69,29.98,10.0,ESE,10.4,-,N/A,,Partly Cloudy,120,2013-03-11 22:58:00
7:58 PM,69.8,62.6,78,29.99,10.0,SE,5.8,-,N/A,,Clear,130,2013-03-11 23:58:00
8:58 PM,69.8,62.6,78,30.00,10.0,SE,5.8,-,N/A,,Clear,130,2013-03-12 00:58:00
9:58 PM,68.0,62.6,83,30.02,10.0,SE,5.8,-,N/A,,Clear,130,2013-03-12 01:58:00
10:58 PM,68.0,60.8,78,30.03,10.0,ESE,5.8,-,N/A,,Clear,110,2013-03-12 02:58:00
11:58 PM,68.0,60.8,78,30.02,10.0,SE,5.8,-,N/A,,Clear,130,2013-03-12 03:58:00